User: anonymous   Login
Location: Young's Pond
(41.2695°N, 72.7766°W)
Time: 15:18:20
(UTC-05:00)
Language:

Spot 4 - Orbit

View from above orbital plane
View from above orbital plane
View from above satellite
View from above satellite

Ground track
Ground track

The orbit data is extracted from the following two-line orbital elements,

1 25260U 98017A   15025.54637463  .00000329  00000-0  90696-4 0  5591
2 25260 098.4348 096.1044 0014141 076.7687 283.5085 14.53166508874952
Epoch (UTC): 25 January 2015 13:06:46
Eccentricity: 0.0014141
inclination: 98.4348°
perigee height: 705 km
apogee height: 725 km
right ascension of ascending node: 96.1044°
argument of perigee: 76.7687°
revolutions per day: 14.53166508
mean anomaly at epoch: 283.5085°
orbit number at epoch: 87495

The dashed part of the orbit path shows where the satellite is in the earth's shadow,  

DLR